Weather Roundup
Issued by NWS Chicago, IL

Home | Current Version | Previous Version | Text Only | Print | Product List | Glossary Off
Versions: 1 2 3 4 5 6 7 8 9 10 11 12 13 14 15 16 17 18 19 20 21 22 23 24 25 26 27 28 29 30 31 32 33 34 35 36 37 38 39 40 41 42 43 44 45 46 47 48 49 50

000
NZUS59 KLOT 041758
HRRLOT

CHICAGO AREA WEATHER ROUNDUP
NATIONAL WEATHER SERVICE CHICAGO/ROMEOVILLE IL
1200 PM CST WED MAR 04 2015

NOTE: "FAIR" INDICATES FEW OR NO CLOUDS BELOW 12,000 FEET WITH NO
SIGNIFICANT WEATHER AND/OR OBSTRUCTIONS TO VISIBILITY.

* THESE STATIONS ARE NOT UNDER NWS QUALITY CONTROL. THEY ALSO MAY NOT
  REPORT WEATHER SUCH AS PRECIPITATION OR FOG.

ILZ005-006-012>014-019>023-041900-
NORTHEAST ILLINOIS

CITY           SKY/WX    TMP DP  RH WIND       PRES   REMARKS
OHARE          PTSUNNY   19   8  62 W14G31    30.13R WCI   6
6HR MIN TEMP:  16; 6HR MAX TEMP:  20;

MIDWAY         NOT AVBL
AURORA         SUNNY     18   7  62 W17       30.16S WCI   3
6HR MIN TEMP:  12; 6HR MAX TEMP:  18;

WAUKEGAN       NOT AVBL
DUPAGE AIRPORT MOSUNNY   19   5  54 NW18      30.14R WCI   4
6HR MIN TEMP:  14; 6HR MAX TEMP:  19; 6HR PCP: TRACE;

WHEELING         N/A    N/A N/A N/A MISG      30.16R
6HR MIN TEMP:  17; 6HR MAX TEMP:  20;

NORTHERLY IS     N/A     22   6  50 W10         N/A  WCI  11
$$

WIZ051-052-058>065-066-070>072-041900-
SOUTHEAST WISCONSIN

CITY           SKY/WX    TMP DP  RH WIND       PRES   REMARKS
MILWAUKEE      MOSUNNY   18   0  45 W15G23    30.13R WCI   4
6HR MIN TEMP:  14; 6HR MAX TEMP:  18;

WAUKESHA       SUNNY     12  -2  52 W16G23    30.13R WCI  -4
$$

INZ001>003-010>013-019-020-041900-
NORTHWEST INDIANA

CITY           SKY/WX    TMP DP  RH WIND       PRES   REMARKS
GARY*          CLOUDY    25   9  50 NW12      30.13R WCI  14
MICHIGAN CITY* NOT AVBL
RENSSELAER*    NOT AVBL
VALPARAISO     CLOUDY    23  13  65 NW9       30.09S WCI  13
$$

LMZ740>746-041900-
SOUTHERN LAKE MICHIGAN

STATION/POSITION TIME  SKY/WX   TEMP WIND        PRES    VSBY
                                AIR  DIR/SP/G
                 (UTC)          (F)  (DEG/KT/KT) (MB)    (MI)
HARRISON CRIB    1700            19  300/ 16/ 19   N/A
BURNHAM HARBOR   1700            22  280/ 10/ 13   N/A
CALUMET HARBOR   1700            22  280/ 11/ 13 1019.1R
BURNS HARBOR     NOT AVBL
MICHIGAN CITY    1700            22  290/ 14/ 16   N/A
$$

ABBREVIATIONS USED IN REMARKS
   TC - TEMPERATURE IN CELSIUS
  WCI - WIND CHILL INDEX
   HX - HEAT INDEX
  VSB - VISIBILITY
$$


USA.gov is the U.S. government's official web portal to all federal, state and local government web resources and services.